| time (UTC) | temp C | wind direction | speed KPH | gust KPH | rain 1hr cm | rain 24hr cm | rain mn cm | humidity % | barometer mb |
| 20260509090506 | 17 | 171 | 0.0 | 3.2 | 0.00 | 0.00 | 0.00 | 68 | 1025.0 |
| 20260509085506 | 17 | 169 | 0.0 | 1.6 | 0.00 | 0.00 | 0.00 | 68 | 1024.8 |
| 20260509084506 | 17 | 170 | 1.6 | 3.2 | 0.00 | 0.00 | 0.00 | 67 | 1024.7 |
| 20260509082006 | 17 | 160 | 1.6 | 3.2 | 0.00 | 0.00 | 0.00 | 67 | 1024.5 |
| 20260509080506 | 17 | 178 | 1.6 | 3.2 | 0.00 | 0.00 | 0.00 | 67 | 1024.4 |
| 20260509075506 | 17 | 173 | 3.2 | 4.8 | 0.00 | 0.00 | 0.00 | 67 | 1024.2 |
| 20260509073506 | 17 | 179 | 3.2 | 4.8 | 0.00 | 0.00 | 0.00 | 67 | 1024.1 |
| 20260509073006 | 17 | 172 | 3.2 | 8.0 | 0.00 | 0.00 | 0.00 | 67 | 1024.0 |
| 20260509072506 | 17 | 164 | 4.8 | 4.8 | 0.00 | 0.00 | 0.00 | 67 | 1024.0 |
| 20260509071006 | 17 | 165 | 4.8 | 8.0 | 0.00 | 0.00 | 0.00 | 66 | 1023.8 |
| 20260509065006 | 18 | 159 | 8.0 | 11.3 | 0.00 | 0.00 | 0.00 | 65 | 1023.6 |
| 20260509064005 | 18 | 162 | 4.8 | 12.9 | 0.00 | 0.00 | 0.00 | 65 | 1023.6 |
| 20260509063006 | 18 | 158 | 4.8 | 11.3 | 0.00 | 0.00 | 0.00 | 63 | 1023.5 |
| 20260509062506 | 18 | 155 | 8.0 | 12.9 | 0.00 | 0.00 | 0.00 | 63 | 1023.5 |
| 20260509062006 | 18 | 180 | 6.4 | 19.3 | 0.00 | 0.00 | 0.00 | 63 | 1023.4 |
| 20260509061006 | 18 | 173 | 4.8 | 14.5 | 0.00 | 0.00 | 0.00 | 62 | 1023.3 |
| 20260509055506 | 18 | 174 | 3.2 | 9.7 | 0.00 | 0.00 | 0.00 | 62 | 1023.2 |
| 20260509054506 | 18 | 164 | 6.4 | 11.3 | 0.00 | 0.00 | 0.00 | 63 | 1023.1 |
| 20260509053506 | 18 | 176 | 8.0 | 14.5 | 0.00 | 0.00 | 0.00 | 62 | 1023.0 |
| 20260509052506 | 18 | 173 | 9.7 | 19.3 | 0.00 | 0.00 | 0.00 | 62 | 1023.0 |
| 20260509051506 | 18 | 169 | 9.7 | 19.3 | 0.00 | 0.00 | 0.00 | 63 | 1023.0 |
| 20260509050505 | 18 | 172 | 8.0 | 16.1 | 0.00 | 0.00 | 0.00 | 62 | 1023.0 |
| 20260509043506 | 18 | 175 | 9.7 | 20.9 | 0.00 | 0.00 | 0.00 | 60 | 1022.9 |
| 20260509043006 | 18 | 185 | 4.8 | 16.1 | 0.00 | 0.00 | 0.00 | 59 | 1022.9 |
| 20260509042506 | 18 | 175 | 8.0 | 20.9 | 0.00 | 0.00 | 0.00 | 59 | 1022.9 |
| 20260509041506 | 18 | 180 | 4.8 | 12.9 | 0.00 | 0.00 | 0.00 | 59 | 1022.9 |
| 20260509041006 | 18 | 174 | 3.2 | 12.9 | 0.00 | 0.00 | 0.00 | 59 | 1022.9 |
| 20260509031505 | 18 | 167 | 9.7 | 14.5 | 0.00 | 0.00 | 0.00 | 58 | 1023.0 |
| 20260509031006 | 18 | 159 | 4.8 | 14.5 | 0.00 | 0.00 | 0.00 | 58 | 1023.0 |
| 20260509030505 | 18 | 181 | 8.0 | 14.5 | 0.00 | 0.00 | 0.00 | 58 | 1023.1 |
| 20260509025006 | 19 | 169 | 8.0 | 12.9 | 0.00 | 0.00 | 0.00 | 57 | 1023.2 |
| 20260509023005 | 20 | 173 | 8.0 | 19.3 | 0.00 | 0.00 | 0.00 | 55 | 1023.5 |
| 20260509021506 | 19 | 172 | 6.4 | 14.5 | 0.00 | 0.00 | 0.00 | 55 | 1023.7 |
| 20260509021006 | 19 | 159 | 3.2 | 11.3 | 0.00 | 0.00 | 0.00 | 54 | 1023.7 |
| 20260509020505 | 19 | 160 | 8.0 | 12.9 | 0.00 | 0.00 | 0.00 | 56 | 1023.8 |
| 20260509020005 | 19 | 160 | 4.8 | 12.9 | 0.00 | 0.00 | 0.00 | 55 | 1023.9 |
| 20260509015505 | 19 | 163 | 3.2 | 9.7 | 0.00 | 0.00 | 0.00 | 55 | 1023.9 |
| 20260509015005 | 19 | 185 | 4.8 | 14.5 | 0.00 | 0.00 | 0.00 | 55 | 1024.0 |
| 20260509013505 | 20 | 164 | 0.0 | 9.7 | 0.00 | 0.00 | 0.00 | 52 | 1024.1 |
| 20260509012005 | 20 | 120 | 1.6 | 3.2 | 0.00 | 0.00 | 0.00 | 52 | 1024.2 |
| 20260509011005 | 20 | 124 | 1.6 | 4.8 | 0.00 | 0.00 | 0.00 | 54 | 1024.1 |
| 20260509010506 | 20 | 173 | 3.2 | 3.2 | 0.00 | 0.00 | 0.00 | 54 | 1024.2 |
| 20260509005006 | 20 | 48 | 1.6 | 3.2 | 0.00 | 0.00 | 0.00 | 53 | 1024.4 |
| 20260509004005 | 20 | 71 | 0.0 | 1.6 | 0.00 | 0.00 | 0.00 | 52 | 1024.4 |
| 20260509003505 | 20 | 161 | 1.6 | 3.2 | 0.00 | 0.00 | 0.00 | 53 | 1024.4 |
| 20260509002505 | 19 | 133 | 1.6 | 3.2 | 0.00 | 0.00 | 0.00 | 55 | 1024.4 |
| 20260509002006 | 18 | 103 | 1.6 | 3.2 | 0.00 | 0.00 | 0.00 | 56 | 1024.5 |
| 20260509001005 | 18 | 125 | 1.6 | 4.8 | 0.00 | 0.00 | 0.00 | 56 | 1024.5 |
| 20260509000506 | 18 | 163 | 1.6 | 4.8 | 0.00 | 0.00 | 0.00 | 57 | 1024.5 |
| 20260508235005 | 18 | 156 | 0.0 | 3.2 | 0.00 | 0.00 | 0.00 | 57 | 1024.5 |
| 20260508234005 | 18 | 118 | 1.6 | 4.8 | 0.00 | 0.00 | 0.00 | 58 | 1024.6 |
| 20260508233505 | 18 | 109 | 1.6 | 4.8 | 0.00 | 0.00 | 0.00 | 59 | 1024.6 |
| 20260508233005 | 17 | 90 | 1.6 | 4.8 | 0.00 | 0.00 | 0.00 | 60 | 1024.5 |
| 20260508231505 | 17 | 151 | 1.6 | 3.2 | 0.00 | 0.00 | 0.00 | 60 | 1024.5 |
| 20260508231005 | 17 | 107 | 1.6 | 4.8 | 0.00 | 0.00 | 0.00 | 61 | 1024.6 |
| 20260508230005 | 16 | 214 | 1.6 | 4.8 | 0.00 | 0.00 | 0.00 | 63 | 1024.5 |
| 20260508225505 | 16 | 161 | 1.6 | 3.2 | 0.00 | 0.00 | 0.00 | 64 | 1024.4 |
| 20260508224005 | 16 | 154 | 1.6 | 4.8 | 0.00 | 0.00 | 0.00 | 64 | 1024.4 |
| 20260508222506 | 15 | 148 | 1.6 | 4.8 | 0.00 | 0.00 | 0.00 | 66 | 1024.4 |
| 20260508220005 | 15 | 129 | 1.6 | 4.8 | 0.00 | 0.00 | 0.00 | 66 | 1024.2 |
| 20260508215505 | 15 | 136 | 1.6 | 4.8 | 0.00 | 0.00 | 0.00 | 67 | 1024.2 |
| 20260508212006 | 14 | 143 | 1.6 | 4.8 | 0.00 | 0.00 | 0.00 | 68 | 1023.7 |
| 20260508210005 | 13 | 171 | 3.2 | 9.7 | 0.00 | 0.00 | 0.00 | 70 | 1023.5 |
| 20260508205506 | 13 | 169 | 1.6 | 4.8 | 0.00 | 0.00 | 0.00 | 71 | 1023.4 |
| 20260508203505 | 13 | 161 | 1.6 | 4.8 | 0.00 | 0.00 | 0.00 | 71 | 1023.2 |
| 20260508202506 | 13 | 180 | 3.2 | 4.8 | 0.00 | 0.00 | 0.00 | 70 | 1023.0 |
| 20260508202005 | 13 | 293 | 3.2 | 4.8 | 0.00 | 0.00 | 0.00 | 70 | 1023.0 |
| 20260508201504 | 13 | 184 | 3.2 | 3.2 | 0.00 | 0.00 | 0.00 | 70 | 1023.0 |
| 20260508195504 | 13 | 141 | 1.6 | 3.2 | 0.00 | 0.00 | 0.00 | 70 | 1022.7 |
| 20260508193005 | 14 | 169 | 1.6 | 4.8 | 0.00 | 0.00 | 0.00 | 68 | 1022.4 |
| 20260508192504 | 14 | 177 | 1.6 | 4.8 | 0.00 | 0.00 | 0.00 | 68 | 1022.3 |
| 20260508192005 | 14 | 190 | 1.6 | 3.2 | 0.00 | 0.00 | 0.00 | 68 | 1022.3 |
| 20260508191005 | 14 | 161 | 1.6 | 3.2 | 0.00 | 0.00 | 0.00 | 68 | 1022.2 |
| 20260508190505 | 14 | 156 | 1.6 | 4.8 | 0.00 | 0.00 | 0.00 | 69 | 1022.1 |
| 20260508185005 | 13 | 151 | 1.6 | 3.2 | 0.00 | 0.00 | 0.00 | 68 | 1022.0 |
| 20260508183505 | 13 | 168 | 1.6 | 4.8 | 0.00 | 0.00 | 0.00 | 69 | 1022.0 |
| 20260508182505 | 14 | 171 | 1.6 | 3.2 | 0.00 | 0.00 | 0.00 | 68 | 1022.0 |
| 20260508182004 | 14 | 171 | 1.6 | 4.8 | 0.00 | 0.00 | 0.00 | 68 | 1021.9 |
| 20260508181505 | 14 | 166 | 1.6 | 4.8 | 0.00 | 0.00 | 0.00 | 68 | 1021.9 |
| 20260508175504 | 13 | 169 | 3.2 | 4.8 | 0.00 | 0.00 | 0.00 | 68 | 1021.7 |
| 20260508174005 | 13 | 152 | 3.2 | 4.8 | 0.00 | 0.00 | 0.00 | 68 | 1021.7 |
| 20260508173005 | 14 | 194 | 0.0 | 3.2 | 0.00 | 0.00 | 0.00 | 68 | 1021.7 |
| 20260508172505 | 14 | 160 | 3.2 | 4.8 | 0.00 | 0.00 | 0.00 | 68 | 1021.6 |
| 20260508172004 | 14 | 263 | 1.6 | 4.8 | 0.00 | 0.00 | 0.00 | 68 | 1021.7 |
| 20260508171005 | 14 | 111 | 1.6 | 3.2 | 0.00 | 0.00 | 0.00 | 68 | 1021.7 |
| 20260508170504 | 14 | 156 | 1.6 | 4.8 | 0.00 | 0.00 | 0.00 | 68 | 1021.7 |
| 20260508170005 | 14 | 170 | 1.6 | 3.2 | 0.00 | 0.00 | 0.00 | 68 | 1021.7 |
| 20260508165005 | 14 | 153 | 3.2 | 4.8 | 0.00 | 0.00 | 0.00 | 67 | 1021.7 |
| 20260508164505 | 14 | 146 | 1.6 | 3.2 | 0.00 | 0.00 | 0.00 | 67 | 1021.7 |
| 20260508161504 | 14 | 163 | 1.6 | 4.8 | 0.00 | 0.00 | 0.00 | 67 | 1021.5 |
| 20260508160504 | 14 | 162 | 1.6 | 4.8 | 0.00 | 0.00 | 0.00 | 67 | 1021.6 |
| 20260508160006 | 14 | 170 | 3.2 | 8.0 | 0.00 | 0.00 | 0.00 | 67 | 1021.5 |
| 20260508155007 | 14 | 164 | 3.2 | 4.8 | 0.00 | 0.00 | 0.00 | 67 | 1021.5 |
| 20260508153506 | 14 | 164 | 3.2 | 4.8 | 0.00 | 0.00 | 0.00 | 66 | 1021.6 |
| 20260508152506 | 14 | 146 | 3.2 | 4.8 | 0.00 | 0.00 | 0.00 | 66 | 1021.6 |
| 20260508151506 | 15 | 149 | 1.6 | 9.7 | 0.00 | 0.00 | 0.00 | 66 | 1021.6 |
| 20260508150506 | 14 | 158 | 3.2 | 9.7 | 0.00 | 0.00 | 0.00 | 66 | 1021.6 |
| 20260508150006 | 14 | 152 | 3.2 | 9.7 | 0.00 | 0.00 | 0.00 | 66 | 1021.6 |
| 20260508143007 | 15 | 183 | 1.6 | 3.2 | 0.00 | 0.00 | 0.00 | 66 | 1021.5 |
| 20260508142506 | 15 | 171 | 1.6 | 3.2 | 0.00 | 0.00 | 0.00 | 66 | 1021.5 |
| 20260508142006 | 15 | 162 | 3.2 | 4.8 | 0.00 | 0.00 | 0.00 | 66 | 1021.5 |
| 20260508135506 | 15 | 153 | 1.6 | 4.8 | 0.00 | 0.00 | 0.00 | 65 | 1021.5 |
| 20260508135007 | 15 | 147 | 3.2 | 8.0 | 0.00 | 0.00 | 0.00 | 65 | 1021.4 |
| 20260508134007 | 15 | 156 | 1.6 | 3.2 | 0.00 | 0.00 | 0.00 | 64 | 1021.4 |
| 20260508133506 | 15 | 183 | 1.6 | 4.8 | 0.00 | 0.00 | 0.00 | 64 | 1021.4 |
| 20260508131006 | 15 | 186 | 3.2 | 4.8 | 0.00 | 0.00 | 0.00 | 64 | 1021.3 |
| 20260508130506 | 15 | 162 | 1.6 | 3.2 | 0.00 | 0.00 | 0.00 | 63 | 1021.3 |
| 20260508130006 | 15 | 192 | 3.2 | 8.0 | 0.00 | 0.00 | 0.00 | 63 | 1021.3 |
| 20260508125507 | 15 | 225 | 1.6 | 4.8 | 0.00 | 0.00 | 0.00 | 63 | 1021.3 |
| 20260508125006 | 15 | 164 | 3.2 | 8.0 | 0.00 | 0.00 | 0.00 | 62 | 1021.3 |
| 20260508124506 | 15 | 151 | 3.2 | 8.0 | 0.00 | 0.00 | 0.00 | 62 | 1021.3 |
| 20260508122506 | 15 | 186 | 1.6 | 3.2 | 0.00 | 0.00 | 0.00 | 62 | 1021.3 |
| 20260508115007 | 15 | 162 | 1.6 | 8.0 | 0.00 | 0.00 | 0.00 | 62 | 1021.3 |
| 20260508113007 | 15 | 199 | 1.6 | 8.0 | 0.00 | 0.00 | 0.00 | 62 | 1021.1 |
| 20260508111506 | 15 | 201 | 3.2 | 4.8 | 0.00 | 0.00 | 0.00 | 63 | 1021.1 |
| 20260508111006 | 15 | 200 | 1.6 | 4.8 | 0.00 | 0.00 | 0.00 | 63 | 1021.0 |
| 20260508110006 | 15 | 232 | 3.2 | 4.8 | 0.00 | 0.00 | 0.00 | 62 | 1021.0 |
| 20260508104006 | 15 | 160 | 1.6 | 3.2 | 0.00 | 0.00 | 0.00 | 62 | 1020.7 |
| 20260508102506 | 15 | 177 | 1.6 | 4.8 | 0.00 | 0.00 | 0.00 | 62 | 1020.5 |
| 20260508102006 | 15 | 141 | 0.0 | 4.8 | 0.00 | 0.00 | 0.00 | 62 | 1020.4 |
| 20260508101007 | 16 | 213 | 1.6 | 3.2 | 0.00 | 0.00 | 0.00 | 62 | 1020.3 |
| 20260508095506 | 16 | 229 | 1.6 | 4.8 | 0.00 | 0.00 | 0.00 | 61 | 1020.3 |
| 20260508093506 | 16 | 189 | 1.6 | 4.8 | 0.00 | 0.00 | 0.00 | 60 | 1020.1 |
| 20260508092506 | 16 | 166 | 0.0 | 4.8 | 0.00 | 0.00 | 0.00 | 60 | 1020.0 |
| 20260508092007 | 16 | 144 | 1.6 | 3.2 | 0.00 | 0.00 | 0.00 | 60 | 1020.0 |
| 20260508091006 | 16 | 147 | 1.6 | 3.2 | 0.00 | 0.00 | 0.00 | 59 | 1019.7 |